Vertical_Velocity
-2 -1 -1 -2 -1 -1 -2 -2 -3 -3 -1 -1 -2 -4 -4 -3 -3 -4 -3 -10 -5 6 0 2 -0 4 3 0 2 4 3 -6 -5 7 -11 24 -4 -3 3 -0 4 0 -4 -6 8
-1 -2 -1 -1 -2 -3 -1 -3 -2 -3 -2 0 -0 -1 1 2 -2 -2 -4 4 3 -6 1 8 6 1 4 0 -6 -8 -1 -1 3 4 2 28 -3 2 5 5 -1 1 1 -5 0
-2 -3 -3 -2 -1 -2 -2 0 0 -1 -2 -3 -2 -3 -4 -5 -5 -17 -6 -3 1 4 5 0 9 5 2 6 4 1 -19 2 -4 7 -2 0 -1 5 4 2 2 6 -1 2 -2
-1 -2 -3 -1 -4 -4 -3 -1 -2 -2 -2 -3 -6 -6 -2 1 -2 -17 -4 4 0 1 5 4 6 4 1 -4 4 -2 5 -8 -2 21 -6 -3 3 -1 1 9 2 1 3 6 -0
-2 -2 -2 -2 -0 -2 -2 -5 -3 -4 -4 -4 -4 -2 -5 -5 -1 3 -1 -1 3 -0 6 5 0 13 -2 4 19 -8 -3 10 11 -6 -3 -2 -1 5 0 -8 4 -4 5 4 1
-1 -2 -3 -0 -3 -1 -1 -3 -2 -4 -3 -2 -4 -3 2 -4 2 1 0 1 -3 4 5 -0 -3 4 10 8 8 7 17 5 -6 1 0 1 1 2 8 3 2 1 1 6 5
-4 -1 -1 -0 -1 -2 -2 -4 -4 -5 -5 -7 -3 -3 -5 -4 -2 1 0 -4 -2 5 1 4 -4 11 -0 14 0 -3 13 2 8 -2 0 8 3 -11 8 4 2 2 1 1 5
-3 -3 -3 -3 -2 -1 -2 -2 -2 -2 -1 -1 -2 -1 -1 2 0 -1 1 -3 -6 3 1 5 -1 3 10 -9 1 9 20 7 -11 2 -4 6 -10 -6 -7 3 4 2 1 1 3
-1 -2 -4 -4 -3 -2 -2 -1 -3 -4 -0 -5 -5 -4 -3 -4 -5 1 1 -4 -3 -1 -2 0 5 -3 24 -3 12 0 -3 -2 10 -7 14 -0 -6 10 9 0 3 4 3 1 1
-3 -4 -5 -4 -3 -5 -3 -1 3 2 -13 2 1 -1 -3 -2 -2 1 -1 -5 -2 4 3 4 8 3 1 13 -19 -3 -1 10 -12 -8 -5 2 -6 27 5 -11 1 7 3 3 2
-1 -1 -2 -4 -5 -4 -6 -5 0 -11 15 -3 5 0 -2 -0 6 -2 -4 -5 -3 -3 7 3 6 -20 -2 -1 1 4 3 -7 8 38 1 -7 3 23 -3 3 -4 2 7 -2 8
-2 -3 -1 -1 -6 -5 -5 -11 -7 -4 -31 1 -2 2 -2 -4 -11 8 -4 6 5 1 14 1 -14 2 14 10 0 26 2 2 11 -16 5 -2 -5 8 -5 7 8 -7 0 0 0
-2 -3 -2 -3 -4 -4 -2 -6 -3 -1 -6 3 1 -3 4 -4 -0 -1 -3 5 -0 -4 -1 5 -0 -7 9 2 -1 7 1 9 -18 1 -1 3 3 4 6 8 -1 5 -5 0 2
-1 -3 -4 -0 -10 -2 -5 -4 -4 1 -0 10 6 6 3 -1 7 -1 4 5 -2 -0 9 8 12 -13 6 5 -2 1 -4 42 10 2 -8 -7 -5 -10 -4 1 1 1 2 -3 1
-3 -3 -3 -7 -5 -3 -3 -1 -2 4 1 -9 -1 -2 -0 5 -1 0 -1 -2 -3 1 4 11 6 -14 26 8 -1 -3 -6 8 12 4 -3 -1 8 6 7 -3 0 -0 -2 -4 -0
-2 -4 -1 -4 -9 -5 -3 -5 -1 -5 3 -0 4 -10 -5 10 0 -2 -5 2 -2 -2 -0 7 -1 2 22 -1 -0 -0 -4 0 4 8 4 -5 -5 5 -5 -3 7 -4 -1 -1 -1
-2 -5 -4 -6 -3 -3 -3 -5 -3 -1 1 -6 -18 -1 -1 -8 -3 1 -6 12 4 10 -1 4 7 1 -3 3 -3 0 -1 3 5 5 -2 3 9 15 -0 -2 2 -3 -0 0 -0
-1 -4 -1 -1 -7 -2 -3 -6 -1 4 -2 -7 -0 -5 13 -17 0 -2 -1 3 10 -0 3 2 5 6 1 2 -0 -7 -10 -1 -3 -2 -2 -2 -5 14 -8 -2 5 0 5 3 1
0 -4 -3 -3 -2 -7 -5 -8 2 -4 -3 -5 -6 -1 -2 0 5 -2 -1 -4 2 5 4 3 1 1 0 -1 -5 9 5 -1 -0 -4 3 -7 7 -2 -1 0 1 2 0 2 0
-0 -5 -3 -5 -6 -3 4 -2 1 -2 -9 3 6 1 -0 -6 -5 -3 -6 -0 -1 1 -1 2 3 -1 3 1 3 -8 7 -0 -3 1 1 2 1 12 1 -0 -1 -1 0 1 1
-0 -5 -2 -6 -3 3 -10 -2 0 -3 -2 2 0 1 1 -0 2 12 4 3 -1 -2 4 2 2 -0 -1 -1 3 2 -1 0 -2 -0 3 0 8 -2 0 2 1 2 1 2 2
-1 -1 -2 -4 1 -4 -1 -4 1 -2 -2 2 3 -1 -2 -1 1 1 -2 4 5 3 0 4 -0 5 4 -1 -2 -5 8 -3 6 2 -3 -0 6 -2 -2 0 1 1 2 2 0
-2 1 -3 -5 -6 -3 -0 -3 -3 -1 -3 2 -1 -1 -0 -0 -3 1 0 0 -1 1 -1 0 0 2 1 -1 -3 -2 -2 -4 -2 -10 1 3 7 1 0 -1 -0 2 -0 -2 -1
-3 -1 -4 -5 -1 -2 -3 -2 -2 -1 -0 0 1 -2 -3 0 1 -4 -2 -2 2 -2 0 1 0 0 5 3 1 -0 -1 1 -0 3 -1 2 0 3 1 1 1 -2 -0 1 2
-3 -0 -3 -6 -3 -2 -2 -0 -3 -1 3 -1 -1 -1 0 -3 -3 -1 -0 1 0 0 -1 -1 2 0 1 1 1 1 0 -0 0 2 2 4 -1 -2 -1 0 1 1 0 -0 -0
-0 -4 -0 -2 -1 -1 -1 -3 -5 3 1 0 -2 -2 -0 1 -1 -7 -1 1 -2 1 -1 -0 2 -0 0 2 -2 -0 1 1 2 1 -3 2 2 -0 -1 -0 -1 -0 -1 -1 -1
-1 -1 -2 -2 -2 -2 -3 -3 -4 1 -1 -2 -2 -4 0 -0 1 -0 1 1 -1 -2 -2 -1 -1 -2 5 -2 -1 0 -0 0 0 -0 -1 2 -2 1 -0 -1 -0 -0 -1 -0 1
Height
3123 3121 3118 3114 3110 3107 3104 3100 3094 3090 3084 3079 3076 3072 3068 3066 3064 3062 3061 3058 3057 3057 3057 3057 3056 3059 3061 3062 3063 3065 3066 3062 3067 3073 3076 3078 3076 3077 3081 3082 3084 3086 3086 3087 3092
3122 3117 3113 3110 3107 3103 3099 3095 3089 3084 3080 3075 3069 3064 3060 3057 3054 3053 3051 3049 3048 3048 3048 3049 3048 3049 3051 3053 3054 3055 3056 3057 3067 3070 3072 3073 3071 3074 3077 3077 3078 3082 3084 3085 3089
3118 3114 3110 3106 3101 3097 3093 3088 3084 3079 3074 3068 3062 3056 3053 3049 3045 3038 3039 3039 3039 3039 3039 3040 3041 3041 3041 3044 3045 3046 3042 3059 3062 3063 3063 3064 3066 3069 3072 3073 3075 3078 3080 3084 3086
3114 3110 3105 3101 3098 3093 3088 3083 3078 3073 3068 3062 3055 3051 3046 3042 3044 3032 3030 3032 3031 3032 3032 3031 3033 3034 3034 3035 3039 3042 3042 3049 3056 3058 3056 3059 3063 3063 3068 3070 3070 3071 3076 3080 3083
3109 3105 3101 3097 3092 3088 3084 3079 3073 3068 3062 3055 3049 3044 3038 3033 3028 3027 3021 3019 3020 3019 3021 3022 3023 3026 3027 3031 3037 3035 3037 3044 3049 3049 3053 3055 3057 3060 3062 3063 3066 3067 3071 3075 3079
3106 3101 3096 3091 3088 3084 3078 3072 3067 3061 3055 3048 3042 3036 3030 3024 3018 3014 3013 3011 3009 3010 3011 3013 3015 3022 3023 3026 3029 3031 3035 3037 3040 3044 3048 3051 3054 3054 3058 3059 3061 3065 3068 3071 3075
3103 3097 3092 3087 3083 3078 3073 3067 3062 3054 3047 3040 3032 3026 3022 3020 3013 3009 3005 3005 3003 3002 3004 3005 3009 3011 3016 3020 3022 3025 3030 3030 3035 3039 3042 3046 3049 3049 3053 3055 3058 3061 3063 3067 3070
3099 3094 3089 3082 3077 3072 3067 3061 3054 3047 3039 3032 3026 3019 3016 3011 3008 3005 3001 2999 2999 2997 2996 3000 3003 3007 3006 3015 3017 3019 3025 3026 3028 3033 3037 3041 3041 3048 3048 3052 3054 3057 3060 3063 3067
3097 3091 3086 3079 3073 3067 3062 3055 3048 3042 3034 3027 3020 3015 3010 3008 3005 3001 2997 2994 2993 2992 2991 2992 2995 3000 3004 3008 3012 3013 3014 3019 3024 3027 3033 3036 3039 3045 3043 3049 3051 3054 3057 3060 3064
3093 3088 3082 3075 3069 3062 3055 3048 3041 3034 3031 3021 3016 3015 3010 3006 3002 2996 2992 2989 2986 2986 2988 2988 2990 2993 2997 3002 3001 3005 3011 3014 3019 3022 3028 3031 3035 3038 3039 3044 3049 3052 3054 3057 3061
3089 3084 3078 3072 3065 3057 3048 3041 3035 3025 3025 3016 3012 3009 3007 3003 2999 2992 2988 2985 2982 2983 2985 2985 2986 2982 2985 2993 2999 3005 3007 3010 3013 3016 3022 3025 3030 3034 3035 3039 3042 3047 3051 3053 3059
3085 3080 3074 3069 3062 3054 3046 3038 3032 3024 3010 3010 3009 3007 3003 2999 2994 2992 2988 2986 2983 2983 2984 2983 2979 2984 2990 2992 2996 2998 3002 3006 3012 3013 3019 3023 3026 3030 3031 3034 3037 3041 3045 3047 3053
3082 3076 3071 3064 3058 3051 3043 3036 3029 3020 3014 3008 3006 3005 3002 2997 2992 2988 2986 2983 2981 2979 2979 2978 2979 2980 2984 2986 2990 2993 2998 3002 3009 3012 3017 3020 3023 3026 3029 3030 3030 3035 3039 3044 3047
3078 3073 3067 3062 3055 3046 3038 3031 3025 3018 3010 3013 3009 3004 3001 2995 2991 2987 2983 2982 2978 2977 2976 2976 2974 2977 2977 2980 2988 2992 2995 2999 3005 3010 3013 3018 3017 3019 3022 3023 3027 3030 3034 3038 3043
3074 3069 3064 3056 3051 3044 3037 3028 3022 3016 3014 3014 3010 3004 3000 2998 2992 2986 2982 2978 2976 2976 2978 2976 2974 2973 2977 2982 2985 2992 2996 3000 3004 3008 3012 3015 3019 3011 3015 3016 3020 3024 3028 3033 3039
3071 3066 3060 3055 3048 3040 3032 3026 3020 3018 3012 3013 3010 3003 3000 2997 2991 2985 2981 2976 2975 2975 2976 2975 2975 2977 2979 2983 2987 2993 2997 3001 3003 3008 3010 3011 3015 3005 3009 3012 3017 3018 3023 3028 3033
3069 3063 3057 3050 3044 3037 3030 3023 3021 3019 3019 3015 3007 3002 3000 2995 2990 2987 2980 2975 2976 2975 2975 2977 2977 2978 2981 2985 2989 2993 2998 3000 3003 3005 3002 3006 3011 3008 3007 3009 3012 3013 3019 3024 3029
3066 3061 3054 3048 3042 3035 3027 3024 3023 3024 3020 3016 3010 3004 3002 2996 2991 2988 2982 2978 2975 2975 2976 2976 2980 2980 2981 2986 2989 2992 2996 2995 2992 2995 2997 3006 3006 3003 3004 3007 3009 3011 3016 3021 3026
3062 3058 3052 3045 3038 3032 3029 3025 3028 3024 3021 3014 3009 3007 3004 3001 2996 2990 2986 2983 2980 2978 2979 2977 2978 2980 2981 2985 2989 2992 2994 2997 2997 2996 2995 2999 3002 3003 3002 3004 3007 3009 3012 3018 3023
3060 3055 3050 3043 3037 3033 3030 3028 3027 3023 3020 3016 3013 3011 3007 3001 2997 2993 2990 2987 2983 2981 2980 2980 2981 2981 2983 2986 2989 2991 2995 2998 2997 2994 2991 2994 2997 3000 3000 3002 3004 3007 3010 3015 3020
3057 3051 3047 3041 3036 3034 3029 3028 3025 3022 3020 3018 3015 3012 3010 3005 3001 2998 2995 2992 2986 2982 2981 2981 2983 2985 2985 2987 2987 2991 2992 2996 2997 2996 2991 2990 2998 3000 3000 3001 3002 3006 3010 3013 3017
3054 3051 3045 3040 3039 3031 3029 3028 3025 3022 3020 3018 3016 3014 3011 3007 3003 3001 2998 2995 2990 2985 2983 2983 2983 2985 2987 2987 2988 2988 2992 2995 2994 2997 2996 2996 3001 2999 2999 3000 3002 3005 3009 3012 3016
3051 3047 3042 3038 3035 3032 3029 3026 3024 3021 3019 3018 3016 3015 3012 3009 3007 3004 3001 2996 2992 2987 2985 2985 2986 2986 2987 2990 2989 2990 2992 2994 2997 2999 2997 2997 3002 3000 2999 3001 3004 3007 3011 3014 3017
3049 3046 3041 3038 3034 3032 3029 3027 3024 3021 3018 3018 3016 3014 3011 3009 3008 3004 3001 2997 2994 2991 2988 2987 2987 2987 2988 2987 2988 2990 2991 2994 2997 2998 2998 3000 3002 3002 3002 3004 3007 3009 3012 3015 3018
3047 3044 3039 3037 3033 3031 3028 3027 3024 3021 3020 3018 3016 3015 3013 3009 3006 3005 3000 2997 2994 2992 2990 2988 2988 2988 2988 2987 2988 2989 2991 2994 2996 2998 2999 3001 3002 3004 3006 3008 3009 3012 3014 3016 3018
3045 3043 3039 3035 3033 3031 3028 3026 3024 3021 3019 3018 3016 3014 3012 3011 3008 3004 3001 2999 2995 2994 2992 2990 2990 2989 2989 2988 2989 2990 2990 2992 2995 2998 3000 3002 3003 3005 3006 3008 3009 3011 3012 3014 3015
3042 3039 3037 3035 3032 3030 3029 3026 3024 3020 3019 3017 3015 3012 3011 3009 3006 3003 3001 2998 2996 2994 2992 2991 2991 2990 2990 2990 2991 2992 2991 2991 2994 2997 3000 3003 3003 3004 3005 3006 3007 3008 3009 3010 3011